星链-34605 (STARLINK-34605)

导读

STARLINK-34605是美国于2025年6月28日发射的星链系列卫星,归属SpaceX星链星座项目。该卫星主要为全球范围提供低延迟、高速率的卫星互联网服务,覆盖偏远地区、海洋及航空等传统网络难以触达场景,助力全球互联覆盖扩展,是星链大规模组网部署进程中的一员。

Basic Information
目录编号:
64677
目录名称:
STARLINK-34605
国际标识:
2025-139P
轨道中心:
EARTH
卫星名称:
星链-34605
卫星全名:
星链-34605 (STARLINK-34605)
卫星状态:
在轨 (已飞行433 天)
发射日期:
2025-06-28 UTC
国别 :
美国 (US)
星等 :
--
Orbit Information
数据来源 国际轨道数据
星历时间: 2026-09-04T03:54:07+0800
9小时前
查看轨道信息
半长轴: 6840.805km
偏心率: 0.000108
轨道倾角: 53.161°
近地点辐角 95.732°
升交点赤经 7.857°
平近点角 264.381°
近地点: 461.929km
远地点: 463.407km
周期: 93.847分钟
每日圈数: 15.344119
Detailed Information
固有亮度:
5
最大亮度:
2.5
卫星平台:
Starlink V1.0
覆盖范围:
全球
运营商:
太空探索技术公司
运营商所在国:
美国
制造商(研发单位):
太空探索技术公司
制造商所在国:
美国
使用方式:
暂无
Satellite Introduction
Starlink 计划是 SpaceX 推出的全球卫星互联网项目,通过发射低轨道卫星,为全球尤其是偏远地区提供高速、低延迟的互联网服务。自 2019 年起,Starlink 已部署数千颗卫星,旨在缩小全球数字鸿沟,推动互联网普及。该项目还为军事、航空等行业提供通信支持,带来广泛经济效益。
2D Orbit Map
3D Orbit Map
Orbit Altitude Analysis Chart
Orbit Inclination Analysis Chart
Orbit Comprehensive Analysis Chart
View Comprehensive Chart
Conjunction Data List
Event ID Objects TCA Miss Dist (km) Collision Risk Probability Collision Risk Index (CRI) Action
CDM_260904-114806-467706-613121
2026-09-04T
11:48:29+0000
0.285 km
中距离
4.130895E-4 高风险 0.87
CDM_260903-192306-467706-613121
2026-09-03T
19:23:41+0000
1.012 km
极远距离
1.646914E-5 中风险 0.59
CDM_260903-205706-467706-613121
2026-09-03T
20:57:28+0000
1.147 km
极远距离
1.066563E-5 中风险 0.56
CDM_260904-154706-166806-467721
2026-09-04T
15:47:48+0000
1.154 km
极远距离
5.051078E-6 低风险 0.49
CDM_260904-101406-467706-613121
2026-09-04T
10:14:41+0000
2.061 km
极远距离
1.774404E-6 低风险 0.4
CDM_260904-035805-186906-467721
2026-09-04T
03:58:45+0000
2.197 km
极远距离
1.606598E-6 低风险 0.39
CDM_260903-081806-460306-467722
2026-09-03T
08:18:16+0000
2.810 km
极远距离
1.263481E-6 低风险 0.37
CDM_260904-132206-467706-613121
2026-09-04T
13:22:16+0000
2.670 km
极远距离
1.080522E-6 低风险 0.36
CDM_260904-013805-186906-467721
2026-09-04T
01:38:03+0000
2.815 km
极远距离
1.045062E-6 低风险 0.35
CDM_260903-174906-467706-613121
2026-09-03T
17:49:53+0000
2.833 km
极远距离
9.945147E-7 极低风险 0.35